Location: Edinburgh
(55.9500°N, 3.1600°W)
Time: 07:14:29
(UTC+01:00)

Envisat - Pass Details

Date: 19 February 2019
Orbit: 764 x 766 km, 98.1° (Epoch: 17 October)

Event Time Altitude Azimuth Distance (km) Brightness Sun altitude
Rises 06:29:22 0° 24° (NNE) 3,246 6.5 -9.0°
Reaches altitude 10° 06:32:26 10° 43° (NE) 2,314 6.0 -8.6°
Maximum altitude 06:35:53 18° 86° (E) 1,810 6.2 -8.1°
Drops below altitude 10° 06:39:20 10° 129° (SE) 2,303 6.5 -7.6°
Sets 06:42:22 0° 148° (SSE) 3,224 6.9 -7.2°
